{"data":{"norad_id":66332,"epoch":"2026-05-24T23:29:27.418848Z","epoch_age_seconds":77124,"freshness":"FRESH","line1":"1 66332U 25253P   26144.97878957  .00013434  00000+0  49657-3 0  9992","line2":"2 66332  43.0005 141.5205 0001174 268.9354  91.1363 15.27596686 31914","mean_motion":15.27596686,"eccentricity":0.0001174,"inclination_deg":43.0005,"raan_deg":141.5205,"arg_perigee_deg":268.9354,"mean_anomaly_deg":91.1363,"bstar":0.00049657,"rev_number":3191,"period_min":94.265719034167,"perigee_km":482.19363522573,"apogee_km":483.80462998966,"semimajor_km":6861.1361326077,"source":"CELESTRAK","updated_at":"2026-05-25T13:38:21.169302Z"}}